DateTimeUTC,F1_A11,F1_S11,BsB_S11,BsG_S11,BsR_S11,BbsB_S11,BbsG_S11,BbsR_S11,BaB_A11,BaG_A11,BaR_A11,Tu_S11,T_S11,Uu_S11,U_S11,P_S11,T1_A11
2021-09-02T18:00:00Z,00000200,20000000,,,,,,,-000.22,-000.04,0000.33,18.8,25.6,03.9,02.6,0675.4,31.1
2021-09-02T18:01:00Z,00000200,20000000,,,,,,,0000.46,-000.23,-000.02,18.8,25.6,03.9,02.6,0675.4,31.0
2021-09-02T18:02:00Z,00000200,20000000,,,,,,,0000.03,0000.24,-000.05,18.8,25.6,03.9,02.6,0675.5,31.1
2021-09-02T18:03:00Z,00000200,60000000,,,,,,,0000.46,0000.66,0000.60,18.8,25.5,03.9,02.6,0675.5,31.0
2021-09-02T18:04:00Z,00000200,40000000,0004.44,0003.17,0002.94,0000.38,0000.53,0000.37,0001.10,0000.57,0000.55,18.9,25.5,04.0,02.7,0676.3,31.0
2021-09-02T18:05:00Z,00000200,00000000,0004.19,0003.08,0002.16,0001.02,0000.37,0000.34,0000.73,0001.13,0001.12,19.0,25.4,04.1,02.7,0676.4,31.0
2021-09-02T18:06:00Z,00000200,00000000,0004.48,0003.01,0002.42,0000.63,0000.60,0000.45,0000.83,0000.87,0000.19,19.0,25.4,04.2,02.8,0676.4,31.0
2021-09-02T18:07:00Z,00000200,00000000,0004.76,0002.98,0002.33,0000.54,0000.51,0000.50,0001.23,0000.49,0000.77,19.0,25.4,04.2,02.8,0676.4,31.0
2021-09-02T18:08:00Z,00000200,00000000,0004.48,0002.89,0002.14,0001.02,0000.44,0000.46,0001.04,0000.95,0000.73,19.0,25.4,04.2,02.9,0676.4,31.1
2021-09-02T18:09:00Z,00000200,00000000,0003.97,0003.15,0002.31,0000.86,0000.38,0000.44,0000.66,0000.95,0000.70,19.0,25.4,04.2,02.9,0676.4,31.0
2021-09-02T18:10:00Z,00000200,00000000,0004.45,0003.13,0002.74,0000.70,0000.62,0000.53,0000.59,0001.11,0000.45,19.0,25.4,04.3,02.9,0676.4,31.0
2021-09-02T18:11:00Z,00000200,00000000,0003.31,0002.92,0002.58,0001.04,0000.23,0000.64,0001.26,0000.43,0000.99,19.0,25.4,04.3,02.9,0676.4,31.0
2021-09-02T18:12:00Z,00000200,00000000,0004.03,0003.10,0002.48,0000.72,0000.54,0000.43,0000.82,0000.97,0000.39,19.0,25.4,04.4,03.0,0676.4,31.0
2021-09-02T18:13:00Z,00000200,00000000,0005.21,0003.17,0002.07,0000.60,0000.72,0000.31,0001.01,0000.97,0000.84,19.0,25.4,04.3,02.9,0676.4,31.0
2021-09-02T18:14:00Z,00000200,00000000,0004.61,0003.38,0002.58,0000.12,0000.22,0000.35,0000.84,0000.92,0000.68,19.0,25.4,04.3,03.0,0676.3,31.0
2021-09-02T18:15:00Z,00000200,00000000,0004.47,0003.41,0002.38,0000.35,0000.29,0000.43,0001.29,0001.01,0000.86,19.0,25.4,04.4,03.0,0676.3,31.0
2021-09-02T18:16:00Z,00000200,00000000,0004.40,0003.37,0002.52,0000.77,0000.36,0000.79,0001.28,0000.87,0000.74,19.1,25.4,04.4,03.0,0676.4,31.0
2021-09-02T18:17:00Z,00000200,00000000,0004.80,0003.05,0002.30,0000.43,0000.71,0000.54,0000.48,0000.65,0000.57,19.1,25.4,04.5,03.1,0676.3,31.0
2021-09-02T18:18:00Z,00000200,00000000,0005.00,0003.55,0002.74,0000.16,0000.55,0000.52,0000.96,0000.95,0000.71,19.0,25.4,04.4,03.0,0676.3,31.0
2021-09-02T18:19:00Z,00000200,00000000,0004.81,0003.00,0002.58,0000.27,0000.62,0000.59,0001.02,0000.88,0000.63,19.1,25.4,04.4,03.0,0676.3,31.1
2021-09-02T18:20:00Z,00000200,00000000,0004.56,0003.49,0002.31,0000.43,0000.37,0000.21,0000.80,0000.70,0000.60,19.1,25.3,04.4,03.0,0676.4,31.0
2021-09-02T18:21:00Z,00000200,00000000,0004.78,0003.28,0002.48,0000.84,0000.54,0000.74,0001.02,0001.03,0000.81,19.1,25.3,04.5,03.1,0676.3,31.0
2021-09-02T18:22:00Z,00000200,00000000,0003.94,0003.13,0002.78,0000.43,0000.43,0000.54,0001.04,0001.12,0000.42,19.0,25.3,04.5,03.1,0676.3,31.0
2021-09-02T18:23:00Z,00000200,00000000,0004.99,0003.37,0002.56,0000.37,0000.76,0000.58,0001.02,0000.73,0001.05,19.1,25.4,04.5,03.0,0676.2,31.1
2021-09-02T18:24:00Z,00000200,00000000,0004.63,0003.20,0002.40,0001.04,0000.71,0000.22,0000.52,0000.61,0000.48,19.0,25.3,04.4,03.0,0676.2,31.0
2021-09-02T18:25:00Z,00000200,00000000,0003.66,0003.04,0002.40,0000.56,0000.28,0000.59,0001.26,0001.06,0000.80,19.0,25.3,04.5,03.1,0676.3,31.0
2021-09-02T18:26:00Z,00000200,00000000,0004.24,0003.24,0002.10,0001.03,-000.02,0000.38,0000.83,0000.72,0000.65,19.0,25.4,04.4,03.0,0676.2,31.0
2021-09-02T18:27:00Z,00000200,00000000,0003.83,0003.53,0002.36,0000.22,0000.40,0000.26,0001.05,0001.01,0001.03,19.1,25.3,04.4,03.0,0676.3,31.0
2021-09-02T18:28:00Z,00000200,00000000,0003.99,0003.50,0002.43,0000.83,0000.59,0000.18,0000.62,0000.71,0000.36,19.1,25.3,04.5,03.0,0676.3,31.0
2021-09-02T18:29:00Z,00000200,00000000,0003.82,0002.83,0002.22,0000.61,0000.21,0000.69,0001.23,0000.81,0000.87,19.1,25.3,04.5,03.1,0676.3,31.0
2021-09-02T18:30:00Z,00000200,00000000,0004.27,0003.28,0002.66,-000.04,0000.55,0000.63,0000.65,0001.07,0000.67,19.0,25.3,04.4,03.0,0676.3,31.0
2021-09-02T18:31:00Z,00000200,00000000,0004.45,0003.03,0002.46,0000.81,0000.51,0000.78,0001.02,0000.84,0000.44,19.0,25.3,04.5,03.1,0676.3,31.1
2021-09-02T18:32:00Z,00000200,00000000,0004.06,0003.15,0002.43,0001.49,0000.53,0000.77,0001.13,0000.82,0000.93,19.0,25.3,04.6,03.1,0676.2,31.0
2021-09-02T18:33:00Z,00000200,00000000,0004.53,0003.20,0002.30,0000.12,0000.26,0000.42,0000.54,0000.83,0000.63,19.1,25.3,04.5,03.1,0676.2,31.0
2021-09-02T18:34:00Z,00000200,00000000,0004.09,0003.51,0002.36,0000.55,0000.57,0000.67,0001.05,0000.59,0000.63,19.1,25.3,04.5,03.1,0676.3,31.0
2021-09-02T18:35:00Z,00000200,00000000,0003.91,0003.12,0002.39,0000.79,0000.48,0000.64,0001.02,0001.06,0000.37,19.0,25.3,04.5,03.1,0676.3,31.0
2021-09-02T18:36:00Z,00000200,00000000,0004.58,0003.47,0002.09,0000.66,0000.48,0000.62,0001.00,0000.86,0000.97,19.0,25.3,04.5,03.1,0676.2,31.0
2021-09-02T18:37:00Z,00000200,00000000,0004.81,0003.06,0002.57,0001.24,0000.42,0000.69,0000.81,0000.73,0000.35,19.0,25.3,04.6,03.1,0676.2,31.1
2021-09-02T18:38:00Z,00000200,00000000,0003.89,0003.30,0003.04,0000.61,0000.41,0000.23,0001.01,0000.82,0001.01,19.0,25.3,04.6,03.1,0676.2,31.0
2021-09-02T18:39:00Z,00000200,00000000,0004.57,0003.72,0002.22,0000.65,0000.61,0000.32,0000.98,0000.83,0000.63,19.0,25.3,04.6,03.1,0676.2,31.1
2021-09-02T18:40:00Z,00000200,00000000,0003.84,0003.43,0002.20,0000.59,0000.49,0000.40,0000.71,0001.08,0000.79,19.1,25.3,04.6,03.2,0676.2,31.0
2021-09-02T18:41:00Z,00000200,00000000,0004.23,0002.98,0002.46,0001.33,0000.38,0000.21,0001.10,0000.63,0000.44,19.0,25.3,04.6,03.1,0676.2,31.0
2021-09-02T18:42:00Z,00000200,00000000,0004.85,0003.22,0002.32,0000.11,0000.33,0000.49,0000.70,0000.93,0000.65,19.0,25.3,04.6,03.1,0676.2,31.0
2021-09-02T18:43:00Z,00000200,00000000,0004.43,0003.41,0002.62,0000.95,0000.53,0000.78,0000.61,0000.78,0000.47,19.0,25.3,04.7,03.2,0676.1,31.0
2021-09-02T18:44:00Z,00000200,00000000,0004.48,0003.09,0002.37,0001.15,0000.36,0000.17,0000.91,0000.86,0000.75,19.0,25.3,04.7,03.2,0676.2,31.0
2021-09-02T18:45:00Z,00000200,00000000,0003.90,0003.01,0002.48,0000.36,0000.55,0000.56,0001.30,0000.71,0000.67,19.0,25.3,04.6,03.2,0676.2,31.1
2021-09-02T18:46:00Z,00000200,00000000,0004.63,0003.45,0002.47,0000.48,0000.43,0000.34,0000.63,0000.97,0000.85,19.1,25.3,04.6,03.2,0676.2,31.0
2021-09-02T18:47:00Z,00000200,00000000,0004.18,0002.91,0002.07,0000.31,0000.34,0000.39,0001.05,0000.80,0000.56,19.0,25.3,04.7,03.2,0676.2,31.0
2021-09-02T18:48:00Z,00000200,00000000,0004.43,0003.50,0001.97,0000.18,0000.51,0000.39,0000.79,0000.76,0000.69,19.0,25.3,04.6,03.2,0676.1,31.0
2021-09-02T18:49:00Z,00000200,00000000,0004.90,0003.01,0002.40,0000.51,0000.57,0000.34,0001.02,0001.24,0000.59,19.0,25.3,04.7,03.2,0676.1,31.0
2021-09-02T18:50:00Z,00000200,00000000,0004.45,0002.95,0002.14,0000.80,0000.45,0000.40,0000.91,0000.67,0000.92,19.0,25.3,04.8,03.3,0676.1,31.0
2021-09-02T18:51:00Z,00000200,00000000,0004.90,0003.23,0002.26,0000.11,0000.50,0000.49,0000.98,0000.73,0000.36,19.0,25.3,04.7,03.2,0676.1,31.0
2021-09-02T18:52:00Z,00000200,00000000,0004.19,0003.57,0002.38,0000.64,0000.61,0000.42,0000.77,0000.82,0000.75,19.0,25.3,04.7,03.2,0676.1,31.0
2021-09-02T18:53:00Z,00000200,00000000,0004.46,0003.22,0002.26,0000.81,0000.34,0000.22,0001.10,0000.71,0000.58,19.0,25.3,04.7,03.2,0676.1,31.1
2021-09-02T18:54:00Z,00000200,00000000,0004.13,0003.45,0002.41,0000.30,0000.50,0000.06,0000.93,0001.04,0000.85,19.0,25.3,04.7,03.2,0676.0,31.0
2021-09-02T18:55:00Z,00000200,00000000,0005.39,0003.39,0002.09,0000.88,0000.39,0000.31,0000.86,0000.94,0000.54,19.0,25.3,04.8,03.3,0676.0,31.0
2021-09-02T18:56:00Z,00000200,00000000,0004.55,0003.17,0002.45,0000.03,0000.61,0000.66,0000.96,0000.58,0000.59,19.1,25.3,04.8,03.3,0676.1,31.1
2021-09-02T18:57:00Z,00000200,40000000,,,,,,,0000.05,0000.25,-000.01,19.1,25.3,04.4,03.0,0676.1,31.0
2021-09-02T18:58:00Z,00000200,60000000,,,,,,,0000.13,0000.09,0000.09,18.8,25.4,04.7,03.1,0675.1,31.0
2021-09-02T18:59:00Z,00000200,20000000,,,,,,,-000.01,-000.21,0000.18,18.8,25.5,04.8,03.2,0675.1,31.0
